QPF
0.03 0.03 0.02 0.02 0.01 0.01 0.02 0.02 0.02 0.02 0.02 0.03 0.03 0.03 0.03 0.04 0.03 0.02 0.01 0.01 0.01 0.01 0.03 0.05 0.08 0.11 0.10 0.08 0.08 0.07 0.07 0.06 0.07 0.07 0.04 0.02 0.01 0.03
0.05 0.05 0.04 0.03 0.02 0.02 0.02 0.03 0.03 0.03 0.03 0.03 0.03 0.03 0.03 0.03 0.02 0.02 0.02 0.02 0.01 0.02 0.05 0.06 0.07 0.10 0.10 0.08 0.07 0.07 0.07 0.06 0.09 0.10 0.05 0.02 0.02 0.03
0.08 0.10 0.08 0.06 0.05 0.04 0.03 0.05 0.06 0.05 0.04 0.04 0.03 0.04 0.03 0.02 0.02 0.02 0.02 0.02 0.02 0.05 0.06 0.07 0.07 0.08 0.08 0.06 0.04 0.05 0.07 0.06 0.08 0.07 0.05 0.03 0.03 0.04
0.05 0.08 0.09 0.08 0.07 0.07 0.07 0.06 0.06 0.05 0.04 0.03 0.03 0.04 0.03 0.02 0.02 0.02 0.01 0.02 0.04 0.08 0.08 0.07 0.06 0.06 0.07 0.05 0.03 0.03 0.04 0.06 0.07 0.05 0.05 0.04 0.02 0.03
0.05 0.04 0.04 0.05 0.07 0.08 0.08 0.07 0.06 0.05 0.04 0.03 0.03 0.03 0.02 0.01 0.01 0.01 0.01 0.03 0.06 0.09 0.09 0.07 0.06 0.05 0.05 0.04 0.02 0.02 0.02 0.03 0.04 0.06 0.04 0.03 0.03 0.02
0.04 0.05 0.04 0.04 0.05 0.06 0.06 0.06 0.06 0.05 0.04 0.03 0.02 0.02 0.01 0.01 0.01 0.01 0.03 0.05 0.08 0.09 0.11 0.09 0.06 0.05 0.04 0.03 0.02 0.01 0.01 0.01 0.02 0.04 0.06 0.04 0.04 0.02
0.03 0.04 0.04 0.04 0.05 0.06 0.06 0.05 0.05 0.04 0.03 0.02 0.02 0.02 0.02 0.01 0.02 0.04 0.05 0.07 0.09 0.09 0.11 0.10 0.08 0.06 0.04 0.02 0.01 0.01 0.01 0.01 0.01 0.02 0.04 0.06 0.05 0.02
0.03 0.04 0.04 0.04 0.04 0.05 0.06 0.07 0.06 0.04 0.04 0.03 0.03 0.02 0.02 0.03 0.05 0.06 0.07 0.08 0.10 0.09 0.09 0.11 0.08 0.04 0.02 0.02 0.01 0.01 0.01 0.01 0.02 0.02 0.02 0.04 0.06 0.04
0.06 0.06 0.05 0.04 0.05 0.06 0.06 0.05 0.04 0.04 0.04 0.03 0.03 0.03 0.04 0.05 0.07 0.07 0.07 0.07 0.08 0.08 0.08 0.08 0.04 0.03 0.02 0.01 0.01 0.01 0.01 0.01 0.02 0.03 0.03 0.02 0.05 0.05
0.05 0.06 0.07 0.06 0.04 0.05 0.05 0.04 0.04 0.03 0.03 0.03 0.04 0.05 0.05 0.06 0.06 0.06 0.06 0.05 0.05 0.06 0.05 0.04 0.03 0.02 0.02 0.01 0.01 0.01 0.01 0.01 0.02 0.04 0.04 0.03 0.02 0.05
0.03 0.04 0.04 0.05 0.05 0.04 0.04 0.04 0.03 0.03 0.02 0.03 0.05 0.05 0.05 0.05 0.05 0.05 0.05 0.04 0.06 0.06 0.04 0.03 0.03 0.03 0.02 0.01 0.01 0.01 0.02 0.02 0.03 0.05 0.05 0.05 0.03 0.03
0.03 0.04 0.04 0.04 0.05 0.05 0.04 0.04 0.04 0.03 0.03 0.03 0.03 0.02 0.02 0.03 0.03 0.03 0.04 0.06 0.07 0.06 0.04 0.03 0.03 0.03 0.03 0.01 0.01 0.02 0.02 0.02 0.04 0.04 0.05 0.05 0.05 0.04
0.03 0.05 0.07 0.08 0.08 0.07 0.06 0.05 0.05 0.04 0.02 0.02 0.02 0.02 0.03 0.03 0.02 0.02 0.03 0.04 0.05 0.06 0.05 0.04 0.04 0.04 0.03 0.02 0.02 0.03 0.02 0.02 0.02 0.03 0.04 0.05 0.04 0.04
0.03 0.04 0.05 0.07 0.08 0.07 0.05 0.04 0.03 0.02 0.02 0.01 0.02 0.03 0.03 0.03 0.03 0.03 0.03 0.02 0.03 0.03 0.04 0.04 0.05 0.05 0.05 0.03 0.03 0.02 0.02 0.02 0.02 0.02 0.04 0.04 0.04 0.06
0.02 0.04 0.04 0.04 0.03 0.04 0.05 0.03 0.02 0.01 0.02 0.02 0.02 0.02 0.02 0.02 0.02 0.02 0.02 0.01 0.01 0.01 0.02 0.03 0.04 0.05 0.06 0.06 0.04 0.03 0.02 0.03 0.03 0.03 0.03 0.04 0.04 0.05
0.02 0.02 0.03 0.03 0.03 0.03 0.04 0.04 0.02 0.02 0.02 0.02 0.02 0.02 0.02 0.01 0.01 0.02 0.01 0.01 0.01 0.01 0.01 0.01 0.02 0.03 0.04 0.04 0.04 0.04 0.03 0.03 0.03 0.04 0.04 0.04 0.03 0.04
0.02 0.01 0.02 0.02 0.03 0.04 0.04 0.04 0.03 0.03 0.03 0.02 0.02 0.02 0.01 0.01 0.01 0.01 0.01 0.01 0.01 0.01 0.01 0.01 0.01 0.01 0.02 0.02 0.03 0.05 0.05 0.04 0.05 0.04 0.05 0.05 0.04 0.03
0.01 0.01 0.02 0.03 0.03 0.04 0.04 0.04 0.04 0.04 0.04 0.04 0.02 0.01 0.01 0.01 0.00 0.00 0.01 0.01 0.01 0.01 0.01 0.01 0.01 0.01 0.01 0.01 0.03 0.04 0.04 0.04 0.04 0.05 0.06 0.06 0.06 0.05
0.01 0.01 0.02 0.03 0.03 0.03 0.04 0.05 0.05 0.05 0.04 0.04 0.03 0.01 0.01 0.01 0.00 0.00 0.00 0.01 0.01 0.01 0.01 0.01 0.02 0.02 0.01 0.01 0.01 0.02 0.03 0.04 0.04 0.04 0.04 0.05 0.05 0.05
0.01 0.01 0.01 0.02 0.03 0.03 0.04 0.04 0.04 0.04 0.04 0.03 0.03 0.01 0.01 0.01 0.00 0.00 0.01 0.01 0.02 0.01 0.01 0.01 0.02 0.02 0.01 0.01 0.01 0.01 0.03 0.04 0.04 0.03 0.02 0.03 0.03 0.04
0.02 0.01 0.01 0.02 0.03 0.03 0.04 0.05 0.05 0.05 0.04 0.04 0.03 0.01 0.01 0.01 0.01 0.01 0.01 0.01 0.02 0.01 0.01 0.01 0.01 0.01 0.01 0.01 0.02 0.03 0.03 0.04 0.02 0.02 0.02 0.02 0.03 0.04
0.02 0.02 0.01 0.01 0.01 0.02 0.03 0.04 0.05 0.05 0.05 0.04 0.03 0.02 0.02 0.01 0.01 0.01 0.01 0.01 0.01 0.01 0.01 0.01 0.01 0.01 0.00 0.01 0.03 0.03 0.03 0.02 0.02 0.02 0.02 0.02 0.03 0.04
0.01 0.01 0.01 0.01 0.01 0.01 0.02 0.03 0.04 0.04 0.04 0.04 0.04 0.02 0.02 0.02 0.01 0.01 0.01 0.01 0.01 0.01 0.01 0.01 0.01 0.01 0.00 0.01 0.02 0.02 0.02 0.02 0.02 0.02 0.02 0.02 0.02 0.04
MSLP
1022.71 1022.66 1022.59 1022.45 1022.20 1021.80 1021.25 1020.55 1019.74 1018.87 1017.98 1017.11 1016.30 1015.54 1014.83 1014.13 1013.41 1012.65 1011.82 1010.93 1009.99 1009.02 1008.07 1007.16 1006.31 1005.54 1004.84 1004.21 1003.64 1003.15 1002.73 1002.41 1002.21 1002.15 1002.23 1002.46 1002.81 1003.26
1022.98 1022.92 1022.83 1022.69 1022.45 1022.07 1021.55 1020.89 1020.13 1019.29 1018.42 1017.56 1016.73 1015.94 1015.17 1014.41 1013.64 1012.83 1011.98 1011.09 1010.18 1009.28 1008.40 1007.56 1006.78 1006.07 1005.41 1004.80 1004.24 1003.73 1003.28 1002.92 1002.68 1002.56 1002.60 1002.79 1003.10 1003.52
1023.15 1023.06 1022.96 1022.80 1022.57 1022.21 1021.74 1021.14 1020.44 1019.67 1018.87 1018.05 1017.23 1016.43 1015.63 1014.83 1014.02 1013.18 1012.32 1011.45 1010.59 1009.75 1008.94 1008.20 1007.50 1006.85 1006.24 1005.66 1005.10 1004.58 1004.11 1003.71 1003.42 1003.26 1003.24 1003.37 1003.63 1004.00
1023.27 1023.15 1023.02 1022.85 1022.62 1022.29 1021.87 1021.35 1020.73 1020.06 1019.33 1018.57 1017.80 1017.01 1016.21 1015.39 1014.55 1013.70 1012.85 1012.00 1011.19 1010.42 1009.70 1009.04 1008.42 1007.84 1007.28 1006.73 1006.18 1005.65 1005.16 1004.72 1004.39 1004.17 1004.10 1004.17 1004.37 1004.68
1023.36 1023.21 1023.06 1022.88 1022.65 1022.35 1021.98 1021.54 1021.02 1020.44 1019.81 1019.13 1018.41 1017.66 1016.87 1016.05 1015.21 1014.36 1013.52 1012.71 1011.95 1011.25 1010.61 1010.03 1009.49 1008.97 1008.46 1007.93 1007.39 1006.85 1006.33 1005.87 1005.49 1005.24 1005.11 1005.13 1005.28 1005.53
1023.44 1023.27 1023.09 1022.90 1022.68 1022.41 1022.10 1021.73 1021.31 1020.83 1020.30 1019.70 1019.05 1018.33 1017.57 1016.77 1015.93 1015.10 1014.28 1013.51 1012.81 1012.17 1011.61 1011.10 1010.62 1010.15 1009.67 1009.16 1008.62 1008.08 1007.54 1007.05 1006.65 1006.36 1006.20 1006.17 1006.27 1006.47
1023.48 1023.30 1023.11 1022.92 1022.71 1022.47 1022.22 1021.92 1021.59 1021.20 1020.75 1020.24 1019.65 1018.99 1018.26 1017.48 1016.68 1015.87 1015.08 1014.35 1013.70 1013.12 1012.61 1012.16 1011.73 1011.29 1010.83 1010.33 1009.79 1009.23 1008.69 1008.18 1007.76 1007.45 1007.26 1007.21 1007.27 1007.43
1023.47 1023.29 1023.10 1022.91 1022.72 1022.52 1022.31 1022.08 1021.82 1021.51 1021.15 1020.71 1020.19 1019.58 1018.90 1018.16 1017.38 1016.61 1015.86 1015.18 1014.57 1014.03 1013.57 1013.15 1012.75 1012.34 1011.88 1011.38 1010.84 1010.27 1009.71 1009.20 1008.76 1008.44 1008.24 1008.16 1008.20 1008.33
1023.38 1023.21 1023.03 1022.85 1022.68 1022.51 1022.34 1022.17 1021.97 1021.74 1021.44 1021.07 1020.62 1020.07 1019.43 1018.74 1018.01 1017.28 1016.58 1015.94 1015.37 1014.88 1014.45 1014.06 1013.67 1013.26 1012.80 1012.29 1011.73 1011.16 1010.59 1010.07 1009.63 1009.30 1009.09 1009.00 1009.02 1009.12
1023.19 1023.03 1022.87 1022.71 1022.56 1022.42 1022.30 1022.17 1022.02 1021.84 1021.61 1021.31 1020.91 1020.42 1019.85 1019.21 1018.54 1017.86 1017.22 1016.63 1016.10 1015.64 1015.23 1014.85 1014.46 1014.04 1013.58 1013.05 1012.49 1011.90 1011.33 1010.81 1010.37 1010.04 1009.82 1009.72 1009.71 1009.79
1022.88 1022.75 1022.61 1022.48 1022.35 1022.24 1022.15 1022.05 1021.95 1021.82 1021.64 1021.39 1021.05 1020.63 1020.12 1019.55 1018.95 1018.34 1017.75 1017.21 1016.73 1016.30 1015.91 1015.53 1015.14 1014.71 1014.23 1013.70 1013.13 1012.54 1011.97 1011.45 1011.01 1010.68 1010.45 1010.33 1010.30 1010.34
1022.47 1022.37 1022.26 1022.15 1022.04 1021.95 1021.88 1021.81 1021.74 1021.64 1021.51 1021.31 1021.04 1020.68 1020.25 1019.76 1019.23 1018.69 1018.17 1017.69 1017.25 1016.85 1016.47 1016.10 1015.71 1015.28 1014.79 1014.26 1013.69 1013.10 1012.54 1012.03 1011.60 1011.27 1011.03 1010.89 1010.84 1010.84
1021.97 1021.89 1021.80 1021.70 1021.61 1021.54 1021.47 1021.43 1021.38 1021.31 1021.22 1021.07 1020.85 1020.57 1020.21 1019.81 1019.36 1018.91 1018.46 1018.03 1017.64 1017.27 1016.91 1016.55 1016.16 1015.73 1015.26 1014.73 1014.18 1013.62 1013.08 1012.59 1012.18 1011.85 1011.61 1011.46 1011.36 1011.32
1021.37 1021.31 1021.23 1021.14 1021.06 1020.99 1020.93 1020.88 1020.85 1020.81 1020.75 1020.65 1020.50 1020.28 1020.01 1019.69 1019.33 1018.95 1018.58 1018.22 1017.87 1017.54 1017.21 1016.86 1016.49 1016.08 1015.62 1015.12 1014.60 1014.08 1013.59 1013.14 1012.76 1012.45 1012.22 1012.05 1011.93 1011.85
1020.68 1020.62 1020.54 1020.45 1020.36 1020.28 1020.22 1020.17 1020.15 1020.13 1020.10 1020.05 1019.96 1019.81 1019.62 1019.39 1019.11 1018.82 1018.52 1018.22 1017.93 1017.64 1017.34 1017.02 1016.67 1016.29 1015.87 1015.42 1014.95 1014.49 1014.05 1013.66 1013.33 1013.06 1012.85 1012.69 1012.55 1012.44
1019.88 1019.80 1019.71 1019.60 1019.49 1019.40 1019.33 1019.28 1019.27 1019.27 1019.27 1019.27 1019.23 1019.17 1019.06 1018.90 1018.72 1018.51 1018.28 1018.05 1017.80 1017.56 1017.30 1017.02 1016.71 1016.37 1016.00 1015.60 1015.21 1014.82 1014.46 1014.15 1013.88 1013.67 1013.49 1013.35 1013.21 1013.08
1018.94 1018.84 1018.72 1018.58 1018.45 1018.34 1018.26 1018.22 1018.21 1018.24 1018.28 1018.32 1018.35 1018.35 1018.32 1018.25 1018.15 1018.02 1017.86 1017.69 1017.51 1017.31 1017.09 1016.86 1016.59 1016.31 1016.00 1015.68 1015.36 1015.05 1014.78 1014.55 1014.36 1014.21 1014.09 1013.98 1013.86 1013.72
1017.87 1017.73 1017.56 1017.40 1017.24 1017.12 1017.03 1017.00 1017.01 1017.06 1017.14 1017.24 1017.33 1017.41 1017.45 1017.46 1017.44 1017.39 1017.30 1017.20 1017.07 1016.93 1016.76 1016.57 1016.36 1016.13 1015.89 1015.64 1015.40 1015.17 1014.98 1014.83 1014.72 1014.64 1014.58 1014.52 1014.43 1014.31
1016.68 1016.49 1016.29 1016.09 1015.91 1015.78 1015.69 1015.67 1015.71 1015.80 1015.92 1016.08 1016.23 1016.37 1016.49 1016.58 1016.63 1016.65 1016.64 1016.60 1016.53 1016.45 1016.34 1016.20 1016.05 1015.87 1015.69 1015.50 1015.32 1015.17 1015.05 1014.97 1014.93 1014.91 1014.91 1014.90 1014.85 1014.76
1015.43 1015.20 1014.95 1014.73 1014.54 1014.40 1014.32 1014.32 1014.38 1014.51 1014.67 1014.88 1015.09 1015.29 1015.48 1015.63 1015.76 1015.85 1015.91 1015.93 1015.93 1015.91 1015.86 1015.78 1015.68 1015.56 1015.42 1015.28 1015.16 1015.05 1014.98 1014.95 1014.95 1014.98 1015.03 1015.06 1015.06 1015.01
1014.22 1013.93 1013.66 1013.41 1013.21 1013.07 1013.00 1013.01 1013.10 1013.25 1013.46 1013.70 1013.95 1014.21 1014.45 1014.66 1014.85 1015.01 1015.13 1015.23 1015.30 1015.34 1015.35 1015.33 1015.28 1015.20 1015.11 1015.01 1014.91 1014.83 1014.77 1014.76 1014.79 1014.85 1014.93 1015.00 1015.04 1015.03
1013.14 1012.82 1012.52 1012.25 1012.03 1011.88 1011.82 1011.83 1011.93 1012.09 1012.32 1012.58 1012.86 1013.14 1013.42 1013.68 1013.92 1014.13 1014.32 1014.49 1014.63 1014.74 1014.81 1014.85 1014.86 1014.82 1014.76 1014.68 1014.59 1014.51 1014.45 1014.44 1014.46 1014.53 1014.62 1014.72 1014.80 1014.83
1012.31 1011.96 1011.63 1011.33 1011.09 1010.93 1010.84 1010.84 1010.92 1011.08 1011.28 1011.53 1011.81 1012.10 1012.40 1012.68 1012.96 1013.22 1013.47 1013.71 1013.91 1014.10 1014.24 1014.35 1014.40 1014.41 1014.37 1014.30 1014.21 1014.12 1014.05 1014.01 1014.01 1014.06 1014.15 1014.26 1014.37 1014.46
Thickness
5631 5630 5629 5627 5626 5625 5624 5623 5621 5622 5623 5623 5621 5619 5618 5617 5617 5617 5618 5617 5617 5618 5619 5621 5624 5626 5629 5632 5635 5636 5638 5640 5641 5642 5643 5644 5646 5646
5625 5624 5623 5622 5620 5619 5618 5617 5616 5615 5615 5616 5614 5613 5611 5611 5610 5611 5612 5611 5611 5612 5613 5615 5617 5620 5622 5624 5627 5629 5630 5632 5633 5634 5635 5637 5639 5639
5621 5619 5617 5615 5613 5612 5612 5611 5610 5609 5607 5608 5608 5607 5605 5605 5605 5605 5605 5606 5607 5606 5607 5609 5611 5613 5615 5617 5620 5622 5623 5625 5625 5626 5628 5630 5631 5633
5614 5612 5611 5609 5607 5606 5605 5605 5604 5603 5602 5600 5600 5600 5599 5599 5599 5599 5599 5600 5601 5600 5600 5602 5604 5606 5608 5610 5612 5614 5616 5617 5618 5620 5621 5623 5625 5626
5608 5606 5605 5603 5602 5600 5599 5598 5597 5596 5594 5593 5593 5592 5592 5592 5592 5592 5593 5593 5594 5595 5595 5596 5598 5599 5601 5603 5604 5606 5608 5610 5611 5613 5614 5615 5617 5619
5602 5600 5598 5597 5595 5594 5593 5592 5590 5589 5587 5586 5586 5585 5585 5584 5585 5586 5587 5588 5589 5590 5591 5592 5593 5594 5595 5597 5599 5600 5601 5602 5604 5606 5607 5609 5611 5612
5596 5594 5592 5589 5586 5585 5585 5584 5583 5582 5580 5579 5578 5577 5578 5577 5578 5580 5581 5583 5585 5585 5587 5588 5589 5591 5591 5592 5592 5593 5594 5595 5597 5599 5601 5602 5604 5604
5590 5588 5586 5583 5580 5577 5576 5575 5574 5574 5574 5573 5572 5571 5572 5572 5571 5573 5574 5577 5579 5580 5580 5582 5583 5585 5586 5587 5587 5587 5588 5589 5590 5592 5594 5596 5597 5598
5583 5581 5579 5577 5574 5573 5571 5568 5568 5566 5565 5566 5566 5566 5567 5567 5566 5567 5568 5570 5572 5574 5573 5576 5578 5579 5580 5581 5581 5581 5581 5583 5585 5586 5587 5589 5590 5591
5576 5574 5572 5571 5568 5567 5567 5565 5564 5562 5560 5560 5561 5560 5560 5560 5560 5561 5563 5565 5567 5567 5567 5569 5572 5573 5574 5575 5574 5574 5575 5576 5578 5579 5581 5582 5583 5583
5569 5567 5565 5563 5561 5560 5561 5560 5558 5557 5554 5553 5553 5553 5552 5552 5553 5555 5556 5558 5560 5562 5560 5562 5565 5566 5568 5569 5569 5569 5569 5570 5571 5573 5574 5575 5576 5576
5562 5560 5557 5555 5554 5555 5556 5555 5554 5552 5551 5550 5549 5548 5548 5547 5546 5548 5549 5550 5552 5554 5553 5553 5556 5557 5561 5564 5563 5563 5563 5564 5565 5566 5567 5568 5568 5569
5556 5554 5551 5548 5548 5548 5548 5549 5547 5546 5547 5546 5545 5544 5543 5542 5541 5541 5541 5541 5543 5544 5544 5544 5547 5548 5550 5554 5556 5557 5557 5557 5558 5559 5560 5560 5560 5561
5548 5547 5544 5541 5541 5540 5541 5540 5539 5539 5540 5539 5538 5537 5536 5534 5533 5532 5533 5533 5534 5534 5535 5535 5537 5538 5540 5544 5547 5548 5548 5549 5550 5552 5553 5553 5553 5553
5540 5538 5536 5535 5534 5534 5533 5532 5532 5533 5533 5532 5531 5530 5528 5527 5526 5525 5526 5526 5527 5527 5527 5528 5529 5530 5531 5534 5536 5538 5539 5540 5541 5542 5544 5545 5547 5547
5532 5530 5529 5528 5527 5527 5526 5526 5526 5526 5525 5524 5523 5522 5521 5520 5519 5519 5519 5519 5520 5521 5520 5520 5520 5521 5523 5524 5526 5528 5529 5530 5531 5533 5534 5537 5539 5540
5526 5526 5525 5524 5523 5522 5521 5520 5519 5518 5517 5516 5516 5516 5515 5514 5513 5512 5512 5513 5514 5515 5514 5513 5512 5512 5513 5515 5516 5518 5520 5521 5522 5523 5525 5528 5530 5532
5519 5520 5519 5517 5516 5515 5514 5513 5512 5511 5510 5509 5509 5508 5508 5507 5507 5505 5505 5505 5506 5506 5506 5505 5505 5506 5507 5508 5506 5508 5510 5511 5512 5514 5516 5519 5522 5523
5513 5514 5512 5511 5509 5508 5507 5505 5504 5504 5503 5502 5502 5502 5501 5501 5500 5499 5499 5498 5499 5499 5498 5498 5498 5499 5501 5503 5503 5498 5500 5502 5503 5505 5507 5510 5513 5515
5507 5506 5505 5504 5502 5500 5499 5498 5497 5496 5495 5495 5495 5495 5494 5494 5494 5493 5492 5491 5491 5491 5491 5491 5490 5490 5491 5492 5493 5493 5491 5493 5494 5496 5498 5500 5503 5504
5500 5499 5497 5496 5495 5494 5493 5491 5490 5489 5488 5487 5487 5487 5487 5487 5487 5487 5486 5484 5483 5484 5485 5485 5483 5480 5481 5483 5485 5487 5486 5484 5485 5487 5489 5491 5494 5496
5494 5492 5491 5490 5488 5487 5486 5485 5484 5483 5482 5481 5481 5480 5480 5480 5481 5480 5480 5479 5478 5478 5478 5477 5475 5474 5474 5476 5478 5480 5480 5479 5478 5478 5478 5480 5483 5486
5487 5486 5485 5483 5482 5481 5480 5479 5478 5477 5477 5476 5475 5474 5473 5473 5473 5473 5473 5472 5472 5471 5470 5470 5469 5468 5468 5468 5469 5471 5472 5472 5472 5472 5471 5471 5471 5471